Location: Ferintosh
(52.7647°N, 112.9692°W)
Time: 21:32:38
(UTC+00:00)

A-11 Canister half - Pass Details

Date: 24 May 2024
Orbit: 1524 x 1683 km, 47.3° (Epoch: 19 June)

Event Time Altitude Azimuth Distance (km) Brightness Sun altitude
Rises 02:14:40 0° 178° (S) 4,666 11.3 9.8°
Reaches altitude 10° 02:19:30 10° 156° (SSE) 3,703 10.6 9.2°
Maximum altitude 02:24:03 15° 126° (SE) 3,360 10.3 8.5°
Drops below altitude 10° 02:28:39 10° 97° (E) 3,756 10.5 7.9°
Sets 02:33:35 0° 76° (ENE) 4,776 11.1 7.2°
